STARLINK-35072

Last updated on Mon Oct 06 2025 00:02:05 GMT+0000 (Coordinated Universal Time)

1 65505U 25198P 25278.50001156 .00121582 00000+0 21663-2 0 9996 2 65505 53.1588 280.4618 0001161 77.6906 93.6579 15.49229342 5382

Satellite not in orbit

STARLINK-35072